TimeMDT,TemperatureF,Dew PointF,Humidity,Sea Level PressureIn,VisibilityMPH,Wind Direction,Wind SpeedMPH,Gust SpeedMPH,PrecipitationIn,Events,Conditions,WindDirDegrees,DateUTC
12:55 AM,54.0,45.0,72,30.20,10.0,Calm,Calm,-,N/A,,Clear,0,2013-07-27 06:55:00
1:55 AM,53.1,44.1,71,30.19,10.0,East,3.5,-,N/A,,Mostly Cloudy,90,2013-07-27 07:55:00
2:55 AM,52.0,45.0,77,30.19,10.0,East,4.6,-,N/A,,Overcast,80,2013-07-27 08:55:00
3:55 AM,50.0,43.0,77,30.18,10.0,ENE,3.5,-,N/A,,Clear,70,2013-07-27 09:55:00
4:55 AM,48.9,43.0,80,30.18,10.0,ENE,3.5,-,N/A,,Clear,60,2013-07-27 10:55:00
5:55 AM,48.0,43.0,83,30.19,10.0,Calm,Calm,-,N/A,,Partly Cloudy,0,2013-07-27 11:55:00
6:55 AM,55.0,45.0,69,30.17,10.0,East,5.8,-,N/A,,Overcast,80,2013-07-27 12:55:00
7:55 AM,60.1,45.0,57,30.17,10.0,East,6.9,-,N/A,,Scattered Clouds,80,2013-07-27 13:55:00
8:55 AM,63.0,42.1,46,30.17,10.0,East,10.4,-,N/A,,Partly Cloudy,90,2013-07-27 14:55:00
9:55 AM,66.0,42.1,42,30.16,10.0,East,12.7,-,N/A,,Partly Cloudy,80,2013-07-27 15:55:00
10:55 AM,68.0,42.1,39,30.14,10.0,East,11.5,16.1,N/A,,Clear,80,2013-07-27 16:55:00
11:55 AM,68.0,43.0,40,30.13,10.0,ENE,5.8,-,N/A,,Clear,70,2013-07-27 17:55:00
12:55 PM,71.1,41.0,34,30.11,10.0,Variable,6.9,-,N/A,,Clear,0,2013-07-27 18:55:00
1:55 PM,72.0,41.0,33,30.08,10.0,SSE,11.5,16.1,N/A,,Clear,150,2013-07-27 19:55:00
2:55 PM,73.9,43.0,33,30.05,10.0,SSE,8.1,-,N/A,,Clear,160,2013-07-27 20:55:00
3:55 PM,75.0,43.0,32,30.03,10.0,Variable,3.5,-,N/A,,Clear,0,2013-07-27 21:55:00
4:55 PM,75.9,42.1,30,30.01,10.0,East,12.7,-,N/A,,Clear,90,2013-07-27 22:55:00
5:55 PM,75.0,42.1,31,30.00,10.0,East,13.8,-,N/A,,Clear,90,2013-07-27 23:55:00
6:55 PM,72.0,42.1,34,30.00,10.0,East,11.5,-,N/A,,Clear,90,2013-07-28 00:55:00
7:55 PM,69.1,42.1,38,29.99,10.0,ESE,6.9,-,N/A,,Clear,110,2013-07-28 01:55:00
8:55 PM,63.0,43.0,48,30.01,10.0,East,9.2,-,N/A,,Clear,100,2013-07-28 02:55:00
9:55 PM,61.0,43.0,52,30.01,10.0,East,8.1,-,N/A,,Clear,100,2013-07-28 03:55:00
10:55 PM,61.0,43.0,52,30.00,10.0,East,8.1,-,N/A,,Clear,100,2013-07-28 04:55:00
11:55 PM,60.1,44.1,55,30.01,10.0,East,6.9,-,N/A,,Partly Cloudy,100,2013-07-28 05:55:00